TIANMU-1 21

Last updated on Mon Jun 22 2026 00:02:46 GMT+0000 (Coordinated Universal Time)

1 58662U 23208C 26172.48460245 .00007912 00000+0 23428-3 0 9993 2 58662 97.4507 292.1457 0005737 305.0266 55.0438 15.35141113138221
UTC large
Height (km)
Speed (km/s)
/
Latitude / Longitude
Inclination (degrees)
Orbital Period (minutes)
Azimuth
Elevation
Range (km)
Doppler Factor

Next 0 passes for location: London (51.5072 / 0.1276)

No passes found over London.
TIANMU-1 21